User: anonymous   Login
Location: Unspecified
(0.0000°N, 0.0000°E)
Time: 11:16:36
(UTC+00:00)
Language:

GALILEO 11 (268) - Orbit

View from above orbital plane
View from above orbital plane
View from above satellite
View from above satellite

Ground track
Ground track

The orbit data is extracted from the following two-line orbital elements,

1 41175U 15079B   22272.49219944  .00000047  00000-0  00000-0 0  9998
2 41175  55.1794 138.5410 0002022 343.1806  16.9210  1.70473966 42068
Epoch (UTC): 29 September 2022 11:48:46
Eccentricity: 0.0002022
inclination: 55.1794°
perigee height: 23216 km
apogee height: 23228 km
right ascension of ascending node: 138.5410°
argument of perigee: 343.1806°
revolutions per day: 1.70473966
mean anomaly at epoch: 16.9210°
orbit number at epoch: 4206

The dashed part of the orbit path shows where the satellite is in the earth's shadow,  

DLR